Location: Caltech
(34.1382°N, 118.1253°W)
Time: 04:55:30
(UTC-07:00)

A-11 Canister half - All Passes

Search period start: 28 March 2017 00:00
Search period end: 07 April 2017 00:00
Orbit: 1515 x 1685 km, 47.2° (Epoch: 26 March)

Date Brightness Start Highest point End Pass type
(mag) Time Alt. Az. Time Alt. Az. Time Alt. Az.
28 Mar - 00:33:19 10° WNW 00:43:10 59° SW 00:52:42 10° SSE visible
28 Mar - 02:42:45 10° W 02:46:38 13° WSW 02:50:28 10° SW night (unlit)
28 Mar - 13:48:25 10° SE 13:52:10 13° ESE 13:55:56 10° E daylight
28 Mar - 15:46:02 10° SSW 15:55:39 59° SE 16:05:31 10° ENE daylight
28 Mar - 17:51:02 10° WSW 18:00:52 57° NNW 18:10:54 10° NE daylight
28 Mar - 19:58:31 10° WNW 20:07:51 39° N 20:17:10 10° ENE visible
28 Mar - 22:04:56 10° NW 22:14:55 55° NNE 22:24:40 10° E visible
29 Mar - 00:10:19 10° WNW 00:20:15 63° SW 00:29:54 10° SE visible
29 Mar - 02:19:01 10° W 02:23:48 15° WSW 02:28:33 10° SSW night (unlit)
29 Mar - 13:26:56 10° SE 13:29:20 11° ESE 13:31:46 10° ESE daylight
29 Mar - 15:23:15 10° SSW 15:32:45 55° SE 15:42:30 10° ENE daylight
29 Mar - 17:28:00 10° WSW 17:37:51 59° NNW 17:47:55 10° NE daylight
29 Mar - 19:35:27 10° WNW 19:44:46 39° N 19:54:06 10° ENE visible
29 Mar - 21:41:58 10° NW 21:51:53 53° NNE 22:01:37 10° E visible
29 Mar - 23:47:19 10° WNW 23:57:20 67° SW 00:07:05 10° SE visible
30 Mar - 01:55:29 10° W 02:00:59 16° WSW 02:06:25 10° SSW night (unlit)
30 Mar - 15:00:29 10° SSW 15:09:51 51° SE 15:19:29 10° ENE daylight
30 Mar - 17:04:58 10° WSW 17:14:51 62° NNW 17:24:57 10° NE daylight
30 Mar - 19:12:23 10° WNW 19:21:42 39° N 19:31:03 10° ENE daylight
30 Mar - 21:18:59 10° NW 21:28:51 51° NNE 21:38:34 10° E visible
30 Mar - 23:24:20 10° WNW 23:34:26 71° SW 23:44:15 10° SE visible
31 Mar - 01:32:03 10° W 01:38:10 18° WSW 01:44:11 10° SSW visible
31 Mar - 14:37:45 10° SSW 14:46:58 48° SE 14:56:28 10° ENE daylight
31 Mar - 16:41:58 10° WSW 16:51:51 65° NNW 17:01:59 10° NE daylight
31 Mar - 18:49:18 10° WNW 18:58:37 39° N 19:07:59 10° ENE daylight
31 Mar - 20:56:00 10° NW 21:05:49 49° NNE 21:15:31 10° E visible
31 Mar - 23:01:22 10° NW 23:11:30 75° SW 23:21:23 10° SE visible
01 Apr - 01:08:42 10° W 01:15:19 20° WSW 01:21:51 10° SSW visible
01 Apr - 14:15:01 10° SSW 14:24:05 45° SE 14:33:25 10° ENE daylight
01 Apr - 16:18:59 10° WSW 16:28:51 67° NNW 16:39:01 10° NE daylight
01 Apr - 18:26:13 10° WNW 18:35:32 40° N 18:44:57 10° ENE daylight
01 Apr - 20:33:00 10° NW 20:42:47 48° NNE 20:52:27 10° E visible
01 Apr - 22:38:23 10° NW 22:48:34 79° SW 22:58:32 10° SE visible
02 Apr - 00:45:24 10° W 00:52:29 22° SW 00:59:27 10° S visible
02 Apr - 13:52:19 10° SSW 14:01:13 42° SE 14:10:22 10° ENE daylight
02 Apr - 15:56:01 10° WSW 16:05:52 70° NNW 16:16:03 10° NE daylight
02 Apr - 18:03:09 10° WNW 18:12:28 40° N 18:21:54 10° ENE daylight
02 Apr - 20:10:01 10° NW 20:19:44 46° NNE 20:29:22 10° E visible
02 Apr - 22:15:24 10° NW 22:25:38 84° SW 22:35:38 10° SE visible
03 Apr - 00:22:10 10° WNW 00:29:38 24° SW 00:37:00 10° S visible
03 Apr - 13:29:39 10° SSW 13:38:21 39° SE 13:47:19 10° ENE daylight
03 Apr - 15:33:02 10° WSW 15:42:54 73° NNW 15:53:04 10° NE daylight
03 Apr - 17:40:04 10° WNW 17:49:24 41° N 17:58:51 10° ENE daylight
03 Apr - 19:47:02 10° NW 19:56:40 45° NNE 20:06:18 10° E visible
03 Apr - 21:52:26 10° NW 22:02:42 88° SW 22:12:44 10° SE visible
03 Apr - 23:58:58 10° WNW 00:06:48 26° SW 00:14:30 10° S visible
04 Apr - 13:07:00 10° S 13:15:29 36° SE 13:24:13 10° ENE daylight
04 Apr - 15:10:05 10° WSW 15:19:56 77° NNW 15:30:07 10° NE daylight
04 Apr - 17:17:00 10° W 17:26:19 41° N 17:35:49 10° ENE daylight
04 Apr - 19:24:01 10° NW 19:33:37 44° NNE 19:43:12 10° E visible
04 Apr - 21:29:28 10° NW 21:39:44 89° NE 21:49:49 10° SE visible
04 Apr - 23:35:48 10° WNW 23:43:57 29° SW 23:51:57 10° S visible
05 Apr - 12:44:23 10° S 12:52:38 33° SE 13:01:07 10° ENE daylight
05 Apr - 14:47:09 10° WSW 14:56:58 80° NW 15:07:09 10° NE daylight
05 Apr - 16:53:56 10° W 17:03:16 42° NNW 17:12:46 10° ENE daylight
05 Apr - 19:01:02 10° NW 19:10:34 43° NNE 19:20:06 10° E daylight
05 Apr - 21:06:31 10° NW 21:16:47 85° NE 21:26:53 10° SE visible
05 Apr - 23:12:39 10° WNW 23:21:05 31° SW 23:29:23 10° S visible
06 Apr - 12:21:47 10° S 12:29:47 31° SE 12:38:00 10° ENE daylight
06 Apr - 14:24:13 10° SW 14:34:00 84° NW 14:44:10 10° NE daylight
06 Apr - 16:30:52 10° W 16:40:12 43° NNW 16:49:46 10° ENE daylight
06 Apr - 18:38:01 10° WNW 18:47:30 42° NNE 18:57:00 10° E daylight
06 Apr - 20:43:34 10° NW 20:53:48 81° NE 21:03:55 10° ESE visible
06 Apr - 22:49:32 10° WNW 22:58:13 34° SW 23:06:46 10° S visible
